[[{"header":{"parameterUnit":"m.s-1","parameterCategory":2,"la1":30.2991,"la2":30.254,"lo1":-89.0895,"lo2":-89.0444,"dy":0.0017,"dx":0.0017,"nx":28,"ny":28,"refTime":"2024-05-09T03:00:00:Z","depth":"0","parameterNumber":2,"parameterNumberName":"U-component_of_CURRENTS"},"data":[0,0,0,0,0,0,0,0,0,0,0,0,0,0,0,0,0,0,0,0,0,0,0,0,0,0,0,0,0,0,0,0,0,0,0,0,0,0,0,0,0,0,0,0,0,0,0,0,0,0,0,0,0,0,0,0,0,0,0.1765,0.1765,0,0.1789,0.1789,0.1789,0.178,0.178,0.1779,0.1779,0.1765,0.1765,0.1765,0,0,0,0,0,0,0,0,0,0,0,0,0,0.1705,0.1706,0.1765,0.1765,0.1765,0.1789,0.1789,0.1789,0.178,0.178,0.1779,0.1779,0.1765,0.1765,0.1765,0,0,0,0,0,0,0,0,0,0,0,0,0,0.1729,0.1707,0.1764,0.1765,0.1766,0.1789,0.1789,0.1789,0.178,0.178,0.1779,0.1779,0.1765,0.1765,0.1765,0.1776,0,0,0.1765,0.1765,0,0,0,0,0,0,0,0,0.1727,0.1731,0.1765,0.1765,0.1766,0.1783,0.1763,0.1783,0.178,0.1773,0.1779,0.1778,0.1769,0.1769,0.1772,0.1775,0.1775,0.1765,0.1765,0.1765,0.1765,0,0,0,0,0,0,0,0.1726,0.1729,0.1772,0.1765,0.1766,0.1763,0.1765,0.1767,0.1772,0.1773,0.1773,0.1779,0.1769,0.1773,0.1772,0.1775,0.1765,0.1765,0.1765,0.1765,0.1792,0.1793,0,0,0,0,0,0,0.1728,0.1728,0.1771,0.1773,0.1747,0.1765,0.1767,0.1776,0.1772,0.1772,0.178,0.1779,0.1773,0.1772,0.1771,0.1792,0.1765,0.1765,0.1765,0.1791,0.1792,0.1793,0,0,0,0,0,0,0.1727,0.1732,0.177,0.1752,0.1757,0.1766,0.1776,0.1777,0.1783,0.1778,0.1776,0.1785,0.1772,0.1771,0.1779,0.179,0.1765,0.1765,0.179,0.1792,0.1793,0.1827,0,0,0,0,0,0,0.1725,0.1731,0.1741,0.1753,0.1758,0.1788,0.1777,0.1778,0.1788,0.1787,0.1783,0.1781,0.1772,0.178,0.1779,0.179,0.1765,0.1789,0.1791,0.1792,0.1824,0.1829,0.1832,0,0,0,0,0,0.1723,0.1733,0.1741,0.1747,0.1771,0.1789,0.1792,0.1794,0.1789,0.1797,0.1794,0.1781,0.1788,0.178,0.178,0.1791,0.1789,0.1791,0.1792,0.1823,0.1828,0.1832,0,0,0,0,0,0,0.1709,0.1734,0.1743,0.176,0.1778,0.1788,0.1797,0.1799,0.1804,0.1802,0.1792,0.179,0.18,0.1794,0.1785,0.1803,0.1786,0.1787,0.1809,0.1814,0.1818,0.1821,0.1765,0,0,0,0,0,0.1714,0.173,0.1752,0.1767,0.1777,0.1789,0.1798,0.1802,0.1808,0.1809,0.1806,0.1804,0.1807,0.1809,0.1808,0.1821,0.1857,0.1827,0.1831,0.1834,0.1837,0.19,0.1911,0.1798,0.1798,0.1798,0,0,0.1711,0.1729,0.1737,0.1766,0.1778,0.1792,0.1792,0.1808,0.1818,0.1807,0.1815,0.1817,0.1814,0.1826,0.183,0.1821,0.1894,0.1836,0.1839,0.184,0.1903,0.1914,0.1924,0.18,0.1799,0.1799,0,0,0.171,0.1732,0.1744,0.1761,0.1787,0.1798,0.1805,0.1821,0.1828,0.1842,0.1836,0.185,0.1848,0.1855,0.1856,0.1883,0.1911,0.188,0.1903,0.1964,0.1975,0.1984,0.2084,0.2101,0.1883,0.1883,0.1883,0,0.1706,0.1727,0.175,0.1765,0.1778,0.1801,0.1812,0.1826,0.1842,0.1853,0.1846,0.1868,0.1864,0.1888,0.1895,0.1892,0.1946,0.1885,0.1971,0.1981,0.1989,0.2089,0.2108,0.1885,0.1884,0.1884,0.1884,0,0.1712,0.1731,0.174,0.1768,0.1784,0.1801,0.1825,0.1841,0.1852,0.1868,0.1896,0.1904,0.1921,0.192,0.1914,0.197,0.1997,0.197,0.1962,0.2003,0.2106,0.2125,0.1887,0.1887,0.1886,0.1886,0,0,0.169,0.1737,0.1738,0.1754,0.1789,0.1802,0.1825,0.1856,0.1886,0.1899,0.1945,0.1944,0.1963,0.1966,0.1971,0.2016,0.2133,0.2021,0.2023,0.2125,0.2312,0.2355,0.238,0.2125,0.2127,0.2129,0.2373,0,0.1689,0.1714,0.1739,0.1762,0.1776,0.1808,0.1833,0.1864,0.1899,0.1952,0.1973,0.2022,0.1978,0.2013,0.2043,0.2118,0.2179,0.2072,0.2251,0.2257,0.2293,0.2401,0.2357,0.2571,0.2392,0.2395,0.2398,0,0.168,0.1702,0.172,0.1768,0.1779,0.1795,0.185,0.1882,0.1957,0.1995,0.204,0.2079,0.2156,0.2116,0.2254,0.2193,0.2253,0.23,0.231,0.2347,0.2335,0.2492,0.2613,0.2572,0.2428,0.2425,0.2423,0,0.1642,0.1686,0.1702,0.1714,0.177,0.1785,0.1822,0.1886,0.1941,0.2047,0.212,0.2185,0.2273,0.2329,0.2424,0.2358,0.2598,0.2521,0.2618,0.2624,0.2618,0.2619,0.2719,0.2621,0.2621,0.262,0.2619,0,0.1624,0.1635,0.1686,0.1692,0.1723,0.177,0.1827,0.1877,0.1988,0.2082,0.2149,0.2261,0.2332,0.2467,0.2501,0.2657,0.267,0.2663,0.2695,0.2633,0.2632,0.2617,0.2575,0.2629,0.2627,0.2625,0.2624,0,0.1573,0.1608,0.1627,0.1683,0.1703,0.1723,0.183,0.1889,0.2002,0.214,0.2195,0.2371,0.2565,0.2652,0.2809,0.2798,0.2861,0.2954,0.2902,0.2922,0.2921,0.2882,0.2873,0.2784,0.31,0.3103,0.3105,0,0.1547,0.1552,0.1604,0.1625,0.1649,0.1703,0.1754,0.1872,0.196,0.221,0.229,0.2534,0.2691,0.2964,0.3036,0.3167,0.301,0.3168,0.3003,0.296,0.2941,0.2742,0.265,0.3036,0.3037,0.3038,0.3039,0,0.1497,0.1516,0.1538,0.1588,0.1633,0.1691,0.1783,0.1855,0.2031,0.2174,0.2407,0.2565,0.2871,0.3021,0.3208,0.3246,0.3033,0.3195,0.3156,0.292,0.2704,0.2622,0.2861,0.305,0.3049,0.3048,0.3048,0.3047,0.1458,0.1473,0.1518,0.1561,0.161,0.1681,0.1727,0.1857,0.2004,0.2226,0.2418,0.2642,0.2928,0.3199,0.3221,0.3266,0.3146,0.3184,0.3159,0.2974,0.2817,0.3105,0.3308,0.3308,0.3308,0.3309,0.3309,0,0.1434,0.147,0.1502,0.1561,0.1599,0.1643,0.1753,0.1809,0.1956,0.219,0.2391,0.2736,0.2938,0.3112,0.3301,0.3247,0.3006,0.3176,0.2876,0.2797,0.31,0.3025,0.3167,0.3167,0.3167,0.3167,0.3167,0.3167,0.1431,0.1464,0.1492,0.1541,0.158,0.1626,0.1675,0.1764,0.1907,0.2156,0.237,0.2571,0.295,0.3247,0.3292,0.3212,0.2943,0.2859,0.2784,0.3018,0.3014,0.301,0.2929,0.3049,0.3048,0.2347,0.2342,0.2339]},{"header":{"parameterUnit":"m.s-1","parameterCategory":2,"la1":30.2991,"la2":30.254,"lo1":-89.0895,"lo2":-89.0444,"dy":0.0017,"dx":0.0017,"nx":28,"ny":28,"refTime":"2024-05-09T03:00:00:Z","depth":"0","parameterNumber":3,"parameterNumberName":"V-component_of_CURRENTS"},"data":[0,0,0,0,0,0,0,0,0,0,0,0,0,0,0,0,0,0,0,0,0,0,0,0,0,0,0,0,0,0,0,0,0,0,0,0,0,0,0,0,0,0,0,0,0,0,0,0,0,0,0,0,0,0,0,0,0,0,-0.0086,-0.0087,0,-0.0146,-0.0146,-0.0147,-0.0199,-0.02,-0.02,-0.0201,-0.0276,-0.0277,-0.0279,0,0,0,0,0,0,0,0,0,0,0,0,0,-0.0025,-0.0026,-0.0086,-0.0087,-0.0087,-0.0146,-0.0146,-0.0147,-0.0199,-0.02,-0.02,-0.0201,-0.0275,-0.0277,-0.0279,0,0,0,0,0,0,0,0,0,0,0,0,0,-0.0065,-0.0026,-0.0086,-0.012,-0.0124,-0.0145,-0.0146,-0.0148,-0.0199,-0.02,-0.0201,-0.0201,-0.0275,-0.0277,-0.0279,-0.0276,0,0,-0.0286,-0.0287,0,0,0,0,0,0,0,0,-0.0063,-0.0067,-0.0114,-0.0118,-0.0122,-0.0165,-0.0152,-0.0191,-0.0199,-0.0171,-0.0201,-0.0202,-0.0239,-0.0245,-0.0255,-0.028,-0.0283,-0.0286,-0.0288,-0.0288,-0.0289,0,0,0,0,0,0,0,-0.006,-0.0065,-0.011,-0.0115,-0.0119,-0.0135,-0.0141,-0.016,-0.0201,-0.0173,-0.0177,-0.0183,-0.0242,-0.0252,-0.0257,-0.0284,-0.0286,-0.0288,-0.0289,-0.029,-0.0323,-0.0322,0,0,0,0,0,0,-0.005,-0.0062,-0.0108,-0.0112,-0.0093,-0.0135,-0.0143,-0.0151,-0.02,-0.0208,-0.0182,-0.0185,-0.0248,-0.0254,-0.026,-0.0262,-0.0288,-0.0291,-0.0292,-0.0323,-0.0323,-0.0322,0,0,0,0,0,0,-0.0049,-0.0054,-0.0106,-0.0088,-0.0096,-0.0135,-0.0144,-0.0152,-0.0162,-0.0206,-0.0215,-0.0184,-0.0249,-0.0256,-0.0277,-0.0265,-0.0292,-0.0294,-0.0324,-0.0323,-0.0323,-0.0265,0,0,0,0,0,0,-0.0047,-0.0053,-0.0054,-0.0087,-0.0096,-0.0111,-0.0144,-0.0152,-0.0164,-0.0168,-0.0211,-0.0219,-0.025,-0.0273,-0.0279,-0.0269,-0.0295,-0.0324,-0.0324,-0.0323,-0.0267,-0.0262,-0.0258,0,0,0,0,0,-0.0044,-0.0037,-0.0054,-0.0059,-0.0097,-0.011,-0.0115,-0.0147,-0.0163,-0.016,-0.0194,-0.0217,-0.0271,-0.0274,-0.0281,-0.0272,-0.0325,-0.0324,-0.0323,-0.027,-0.0263,-0.0258,0,0,0,0,0,0,-0.0012,-0.0043,-0.0062,-0.0066,-0.0084,-0.0118,-0.0118,-0.0139,-0.0163,-0.0168,-0.0213,-0.0222,-0.0237,-0.026,-0.0262,-0.0278,-0.0301,-0.0301,-0.0258,-0.0253,-0.0248,-0.0234,-0.0297,0,0,0,0,0,-0.0005,-0.0008,-0.004,-0.0042,-0.0048,-0.0082,-0.009,-0.011,-0.0136,-0.0148,-0.018,-0.0211,-0.0237,-0.0249,-0.0275,-0.028,-0.0298,-0.0279,-0.0274,-0.027,-0.0263,-0.0286,-0.0283,-0.0319,-0.0319,-0.0319,0,0,0.0007,-0.001,-0.0013,-0.0036,-0.0053,-0.0052,-0.0089,-0.0094,-0.0097,-0.0151,-0.0162,-0.0196,-0.0236,-0.0248,-0.0255,-0.0265,-0.0266,-0.0268,-0.0264,-0.026,-0.0284,-0.0281,-0.0278,-0.0318,-0.0318,-0.0318,0,0,0.0037,0.0015,0.0025,0.0014,-0.0006,-0.0025,-0.0022,-0.0052,-0.0068,-0.0082,-0.0124,-0.0149,-0.0184,-0.0213,-0.0231,-0.0213,-0.0242,-0.022,-0.0183,-0.0205,-0.0202,-0.02,-0.0205,-0.0204,-0.0215,-0.0215,-0.0215,0,0.0054,0.0055,0.0027,0.0035,0.003,-0.0007,0.0005,-0.0013,-0.0047,-0.0056,-0.0076,-0.0133,-0.0167,-0.0187,-0.0184,-0.0202,-0.0214,-0.0201,-0.0198,-0.0197,-0.0195,-0.0201,-0.0201,-0.0212,-0.0212,-0.0213,-0.0213,0,0.0091,0.009,0.0099,0.0092,0.0086,0.0092,0.0063,0.0056,0.0031,0.0007,-0.0018,-0.0069,-0.0101,-0.0117,-0.0147,-0.0153,-0.0164,-0.0191,-0.0211,-0.0188,-0.0196,-0.0196,-0.0208,-0.0209,-0.021,-0.0211,0,0,0.0133,0.0126,0.0128,0.0132,0.0116,0.0115,0.0117,0.0104,0.0111,0.0066,0.007,0.001,-0.002,-0.0043,-0.0085,-0.0108,-0.0109,-0.0139,-0.0142,-0.014,-0.0144,-0.0146,-0.0147,-0.0138,-0.0138,-0.0138,-0.0148,0,0.017,0.0197,0.0181,0.0203,0.0214,0.0183,0.019,0.0172,0.0153,0.0149,0.0089,0.0078,0.0009,0.0004,-0.0035,-0.0085,-0.0109,-0.0103,-0.017,-0.0172,-0.0174,-0.0148,-0.0146,-0.0155,-0.0149,-0.0149,-0.0149,0,0.0211,0.0223,0.0252,0.0256,0.0259,0.0267,0.0271,0.0274,0.0256,0.0245,0.0212,0.017,0.0132,0.0075,-0.0014,-0.0005,-0.0069,-0.0116,-0.0118,-0.0141,-0.0175,-0.018,-0.0156,-0.033,-0.015,-0.015,-0.015,0,0.0253,0.027,0.0293,0.0294,0.0297,0.0306,0.0312,0.0304,0.0334,0.0317,0.0351,0.0263,0.0265,0.0153,0.0051,0.0022,-0.0035,-0.0089,-0.0155,-0.0155,-0.0177,-0.0179,-0.0325,-0.0153,-0.0153,-0.0153,-0.0153,0,0.0295,0.0312,0.0315,0.0328,0.0367,0.0353,0.0405,0.0395,0.0429,0.05,0.0412,0.0462,0.0288,0.0234,0.0098,-0.0012,-0.0002,-0.0137,-0.0157,-0.0155,-0.0155,-0.0327,-0.0419,-0.0153,-0.0153,-0.0153,-0.0153,0,0.0331,0.0332,0.0363,0.0377,0.0386,0.0417,0.0485,0.0539,0.0555,0.0653,0.0666,0.063,0.0561,0.0384,0.0231,0.0085,-0.0139,-0.009,-0.0065,-0.0083,-0.0328,-0.0415,-0.0558,-0.0646,-0.0173,-0.0173,-0.0173,0,0.035,0.037,0.0403,0.0442,0.0451,0.0507,0.0565,0.0596,0.0682,0.0778,0.085,0.0812,0.0821,0.0584,0.03,0.0058,-0.0113,-0.0097,-0.0169,-0.0332,-0.0445,-0.051,-0.0579,-0.017,-0.017,-0.017,-0.0171,0,0.0394,0.0404,0.0434,0.0524,0.0585,0.0667,0.0762,0.0854,0.0934,0.1024,0.1156,0.1171,0.0943,0.0698,0.0346,0.0166,-0.0227,-0.0106,-0.0289,-0.0462,-0.0528,-0.0624,-0.0165,-0.0171,-0.0171,-0.0171,-0.0171,-0.0171,0.0432,0.048,0.0544,0.0629,0.0708,0.0851,0.0961,0.1084,0.1243,0.1423,0.1399,0.1454,0.1068,0.0585,0.0297,-0.0227,-0.0236,-0.039,-0.0481,-0.053,-0.0628,-0.0158,-0.0182,-0.0182,-0.0182,-0.0182,-0.0182,0,0.0522,0.0586,0.0662,0.0788,0.0908,0.0928,0.1117,0.1247,0.1465,0.1599,0.1704,0.1541,0.1059,0.0554,-0.0152,-0.0533,-0.069,-0.0737,-0.0854,-0.0908,-0.0501,-0.0517,-0.0596,-0.0596,-0.0596,-0.0596,-0.0595,-0.0595,0.0582,0.0695,0.0747,0.0961,0.1052,0.1248,0.1374,0.1539,0.167,0.1854,0.1888,0.1885,0.1517,0.0205,-0.0688,-0.0904,-0.1172,-0.1223,-0.1364,-0.1117,-0.1092,-0.1069,-0.1108,-0.1309,-0.131,-0.1738,-0.1743,-0.1746]}],[{"header":{"parameterUnit":"m.s-1","parameterCategory":2,"la1":30.2991,"la2":30.254,"lo1":-89.0895,"lo2":-89.0444,"dy":0.0017,"dx":0.0017,"nx":28,"ny":28,"refTime":"2024-05-09T03:00:00:Z","depth":"2","parameterNumber":2,"parameterNumberName":"U-component_of_CURRENTS"},"data":[0,0,0,0,0,0,0,0,0,0,0,0,0,0,0,0,0,0,0,0,0,0,0,0,0,0,0,0,0,0,0,0,0,0,0,0,0,0,0,0,0,0,0,0,0,0,0,0,0,0,0,0,0,0,0,0,0,0,0.1759,0.176,0,0.1784,0.1784,0.1784,0.1777,0.1776,0.1776,0.1776,0.1762,0.1762,0.1762,0,0,0,0,0,0,0,0,0,0,0,0,0,0.1699,0.17,0.1759,0.176,0.176,0.1784,0.1784,0.1784,0.1777,0.1776,0.1776,0.1776,0.1762,0.1762,0.1762,0,0,0,0,0,0,0,0,0,0,0,0,0,0.1723,0.1701,0.1759,0.1761,0.1761,0.1784,0.1784,0.1784,0.1777,0.1776,0.1776,0.1775,0.1762,0.1762,0.1762,0.1772,0,0,0.1762,0.1762,0,0,0,0,0,0,0,0,0.1722,0.1725,0.176,0.1761,0.1761,0.1778,0.1758,0.1779,0.1777,0.1769,0.1776,0.1775,0.1766,0.1765,0.1769,0.1771,0.177,0.1762,0.1762,0.1762,0.1762,0,0,0,0,0,0,0,0.172,0.1724,0.1767,0.1761,0.1762,0.1758,0.1761,0.1762,0.1768,0.177,0.177,0.1776,0.1765,0.1769,0.1768,0.177,0.1762,0.1762,0.1762,0.1762,0.1781,0.1782,0,0,0,0,0,0,0.1722,0.1723,0.1766,0.1768,0.1742,0.176,0.1763,0.1772,0.1768,0.1768,0.1776,0.1775,0.1769,0.1768,0.1768,0.1784,0.1762,0.1762,0.1762,0.1781,0.1781,0.1782,0,0,0,0,0,0,0.1721,0.1726,0.1765,0.1747,0.1752,0.1762,0.1772,0.1773,0.1779,0.1774,0.1773,0.1782,0.1769,0.1768,0.1774,0.1783,0.1762,0.1761,0.178,0.1781,0.1782,0.1813,0,0,0,0,0,0,0.1719,0.1725,0.1735,0.1747,0.1753,0.1782,0.1773,0.1774,0.1784,0.1783,0.1779,0.1777,0.1768,0.1774,0.1774,0.1782,0.1761,0.1779,0.178,0.1781,0.1811,0.1814,0.1817,0,0,0,0,0,0.1717,0.1727,0.1735,0.1741,0.1766,0.1783,0.1785,0.1789,0.1785,0.1792,0.1789,0.1777,0.178,0.1775,0.1774,0.1783,0.1779,0.178,0.1781,0.1809,0.1814,0.1817,0,0,0,0,0,0,0.1703,0.1728,0.1737,0.1754,0.1772,0.1782,0.179,0.1794,0.1798,0.1796,0.1786,0.1785,0.1792,0.1786,0.178,0.1792,0.1777,0.1778,0.1798,0.1802,0.1806,0.181,0.1761,0,0,0,0,0,0.1707,0.1723,0.1746,0.176,0.177,0.1782,0.1791,0.1795,0.1801,0.1802,0.1799,0.1796,0.1797,0.1798,0.1796,0.1806,0.184,0.1811,0.1814,0.1817,0.182,0.1877,0.1886,0.1786,0.1786,0.1786,0,0,0.1704,0.1722,0.173,0.1759,0.1771,0.1782,0.1785,0.1801,0.1808,0.18,0.1805,0.1807,0.1802,0.1811,0.1814,0.1807,0.1871,0.1819,0.1821,0.1823,0.1879,0.1889,0.1898,0.1787,0.1787,0.1787,0,0,0.1701,0.1725,0.1735,0.175,0.1776,0.1786,0.1793,0.1809,0.1816,0.1827,0.1822,0.1834,0.1831,0.1836,0.1836,0.1858,0.1885,0.1854,0.1876,0.1931,0.1941,0.1949,0.2039,0.2054,0.1858,0.1858,0.1858,0,0.1695,0.1715,0.1739,0.1752,0.1763,0.1788,0.1796,0.1809,0.1824,0.1835,0.1829,0.1848,0.1843,0.1864,0.187,0.1866,0.1915,0.1861,0.1937,0.1946,0.1954,0.2044,0.2061,0.1859,0.1859,0.1859,0.1859,0,0.1697,0.1714,0.1721,0.1746,0.1761,0.1776,0.1799,0.1815,0.1827,0.1842,0.1869,0.1876,0.1891,0.189,0.1885,0.1935,0.196,0.1936,0.193,0.1966,0.2058,0.2076,0.1862,0.1861,0.1861,0.186,0,0,0.1675,0.1715,0.1716,0.173,0.1761,0.1774,0.1793,0.1823,0.1852,0.1864,0.1907,0.1905,0.1927,0.1929,0.1935,0.1976,0.2082,0.1982,0.1984,0.2077,0.2244,0.2243,0.2262,0.2076,0.2078,0.208,0.2299,0,0.1668,0.1686,0.171,0.1727,0.1737,0.177,0.1792,0.1823,0.1858,0.1909,0.1931,0.1977,0.1938,0.1974,0.2,0.207,0.2124,0.2027,0.2189,0.2195,0.2194,0.228,0.209,0.2267,0.2316,0.2319,0.2321,0,0.1653,0.1672,0.1684,0.1728,0.1738,0.1752,0.1806,0.1836,0.1908,0.1946,0.1991,0.2029,0.2102,0.2066,0.2192,0.2138,0.2191,0.2234,0.2243,0.2239,0.2225,0.2231,0.2297,0.235,0.2348,0.2346,0.2344,0,0.1615,0.1652,0.1663,0.1674,0.1725,0.1741,0.1776,0.1839,0.1894,0.1995,0.2068,0.2127,0.2212,0.2261,0.2348,0.2289,0.2505,0.2435,0.2485,0.2488,0.2355,0.2341,0.2523,0.2523,0.2522,0.2522,0.2521,0,0.1592,0.16,0.1648,0.1652,0.1682,0.1726,0.1782,0.1831,0.1938,0.203,0.2096,0.2201,0.2266,0.2389,0.2417,0.2536,0.2569,0.2521,0.2546,0.2364,0.2349,0.2422,0.2407,0.253,0.2528,0.2526,0.2525,0,0.154,0.1572,0.1588,0.1641,0.1661,0.1682,0.1788,0.1845,0.1957,0.209,0.2144,0.2307,0.2474,0.255,0.2687,0.266,0.2751,0.2776,0.2582,0.2578,0.2679,0.2663,0.2854,0.2856,0.2858,0.2859,0.286,0,0.1512,0.1515,0.1566,0.1589,0.1613,0.1666,0.1716,0.183,0.1915,0.2156,0.2231,0.2449,0.2574,0.2794,0.2815,0.2904,0.2877,0.2756,0.2579,0.2709,0.2715,0.2696,0.2679,0.2439,0.2436,0.2434,0.2433,0,0.1462,0.1481,0.1502,0.1555,0.16,0.1658,0.1747,0.1814,0.1983,0.2114,0.2323,0.2454,0.2682,0.27,0.2822,0.2821,0.2717,0.2719,0.2936,0.2372,0.2331,0.2332,0.2326,0.2415,0.2417,0.2418,0.2419,0.242,0.1425,0.1441,0.1487,0.1533,0.1582,0.1649,0.1688,0.1809,0.194,0.212,0.228,0.2409,0.2505,0.2594,0.2578,0.2569,0.272,0.2572,0.2572,0.2576,0.2476,0.2439,0.2528,0.253,0.2532,0.2534,0.2536,0,0.1403,0.1444,0.1477,0.1537,0.1573,0.1619,0.1715,0.1745,0.1865,0.2037,0.2175,0.2086,0.2165,0.226,0.2236,0.2271,0.2175,0.2168,0.2011,0.2036,0.2056,0.1919,0.1829,0.1826,0.1823,0.182,0,0,0.1404,0.1438,0.1467,0.1519,0.156,0.1599,0.1637,0.1674,0.1764,0.1817,0.1875,0.206,0.2208,0.196,0.1975,0.1901,0.193,0.1833,0.2416,0.2258,0.2273,0.2331,0.2158,0,0,0,0,0]},{"header":{"parameterUnit":"m.s-1","parameterCategory":2,"la1":30.2991,"la2":30.254,"lo1":-89.0895,"lo2":-89.0444,"dy":0.0017,"dx":0.0017,"nx":28,"ny":28,"refTime":"2024-05-09T03:00:00:Z","depth":"2","parameterNumber":3,"parameterNumberName":"V-component_of_CURRENTS"},"data":[0,0,0,0,0,0,0,0,0,0,0,0,0,0,0,0,0,0,0,0,0,0,0,0,0,0,0,0,0,0,0,0,0,0,0,0,0,0,0,0,0,0,0,0,0,0,0,0,0,0,0,0,0,0,0,0,0,0,-0.017,-0.0171,0,-0.023,-0.023,-0.0231,-0.0281,-0.0281,-0.0282,-0.0282,-0.0359,-0.0361,-0.0362,0,0,0,0,0,0,0,0,0,0,0,0,0,-0.0113,-0.0114,-0.017,-0.0171,-0.0172,-0.0229,-0.023,-0.0231,-0.0281,-0.0281,-0.0282,-0.0282,-0.0358,-0.036,-0.0362,0,0,0,0,0,0,0,0,0,0,0,0,0,-0.0152,-0.0114,-0.017,-0.0203,-0.0206,-0.0229,-0.023,-0.0231,-0.0281,-0.0281,-0.0282,-0.0283,-0.0358,-0.036,-0.0363,-0.0363,0,0,-0.037,-0.0371,0,0,0,0,0,0,0,0,-0.015,-0.0154,-0.0197,-0.0201,-0.0205,-0.0248,-0.0238,-0.0276,-0.028,-0.0253,-0.0282,-0.0283,-0.0322,-0.0328,-0.0338,-0.0366,-0.037,-0.037,-0.0371,-0.0373,-0.0373,0,0,0,0,0,0,0,-0.0147,-0.0152,-0.0194,-0.0198,-0.0202,-0.0219,-0.0225,-0.0246,-0.0284,-0.0256,-0.0259,-0.0264,-0.0325,-0.0336,-0.034,-0.0371,-0.037,-0.0372,-0.0374,-0.0375,-0.0413,-0.0412,0,0,0,0,0,0,-0.0137,-0.0149,-0.0193,-0.0196,-0.0178,-0.0219,-0.0226,-0.0234,-0.0283,-0.0291,-0.0264,-0.0267,-0.0331,-0.0337,-0.0343,-0.0349,-0.0372,-0.0375,-0.0376,-0.0413,-0.0413,-0.0412,0,0,0,0,0,0,-0.0135,-0.014,-0.019,-0.0173,-0.0181,-0.0219,-0.0227,-0.0235,-0.0244,-0.0289,-0.0298,-0.0266,-0.0332,-0.034,-0.0362,-0.0353,-0.0376,-0.0378,-0.0414,-0.0413,-0.0413,-0.036,0,0,0,0,0,0,-0.0134,-0.0139,-0.014,-0.0173,-0.0181,-0.0196,-0.0227,-0.0235,-0.0246,-0.025,-0.0294,-0.0302,-0.0333,-0.0358,-0.0364,-0.0356,-0.038,-0.0414,-0.0413,-0.0413,-0.0362,-0.0357,-0.0353,0,0,0,0,0,-0.0131,-0.0124,-0.014,-0.0145,-0.0181,-0.0195,-0.02,-0.0231,-0.0245,-0.0243,-0.0277,-0.03,-0.0357,-0.0359,-0.0367,-0.036,-0.0415,-0.0414,-0.0413,-0.0364,-0.0358,-0.0353,0,0,0,0,0,0,-0.01,-0.0129,-0.0147,-0.015,-0.0169,-0.0203,-0.0203,-0.0223,-0.0248,-0.0252,-0.0296,-0.0307,-0.0324,-0.0346,-0.0347,-0.0368,-0.0389,-0.0389,-0.0349,-0.0344,-0.034,-0.0325,-0.0382,0,0,0,0,0,-0.0092,-0.0095,-0.0126,-0.0128,-0.0134,-0.0167,-0.0176,-0.0195,-0.0221,-0.0233,-0.0265,-0.0297,-0.0325,-0.0337,-0.0365,-0.0373,-0.0392,-0.0372,-0.0368,-0.0364,-0.0357,-0.0382,-0.0379,-0.0409,-0.0409,-0.0409,0,0,-0.0081,-0.0097,-0.01,-0.0121,-0.0139,-0.0141,-0.0174,-0.018,-0.0185,-0.0236,-0.025,-0.0283,-0.0324,-0.0339,-0.0348,-0.0357,-0.0364,-0.0363,-0.036,-0.0355,-0.0381,-0.0378,-0.0375,-0.0409,-0.0409,-0.0409,0,0,-0.0052,-0.0072,-0.0063,-0.0075,-0.0095,-0.0114,-0.0112,-0.0141,-0.0157,-0.0173,-0.0215,-0.024,-0.0277,-0.0307,-0.0327,-0.0312,-0.0343,-0.0319,-0.0284,-0.0308,-0.0306,-0.0304,-0.0316,-0.0316,-0.0315,-0.0315,-0.0315,0,-0.0036,-0.0036,-0.0061,-0.0056,-0.0062,-0.0098,-0.0089,-0.0108,-0.0141,-0.0151,-0.0169,-0.0228,-0.0262,-0.0286,-0.0284,-0.0302,-0.0317,-0.0301,-0.0302,-0.0301,-0.03,-0.0313,-0.0314,-0.0312,-0.0312,-0.0313,-0.0313,0,-0.0004,-0.0006,0.0002,-0.0007,-0.0014,-0.0011,-0.004,-0.0047,-0.007,-0.0095,-0.0121,-0.0171,-0.0204,-0.022,-0.025,-0.026,-0.0272,-0.0296,-0.0314,-0.0294,-0.0309,-0.031,-0.0308,-0.0309,-0.031,-0.0311,0,0,0.0037,0.0027,0.0028,0.0029,0.0011,0.0009,0.0008,-0.0007,-0.0003,-0.0045,-0.0044,-0.0104,-0.013,-0.0154,-0.0195,-0.0218,-0.0226,-0.0248,-0.025,-0.0256,-0.0269,-0.03,-0.0304,-0.0251,-0.0251,-0.0251,-0.0279,0,0.007,0.0089,0.0073,0.0089,0.0096,0.0067,0.007,0.0052,0.0032,0.0027,-0.003,-0.0043,-0.0106,-0.011,-0.0149,-0.0203,-0.0229,-0.0216,-0.0291,-0.0292,-0.0319,-0.0307,-0.0283,-0.0308,-0.028,-0.0281,-0.0281,0,0.0105,0.0113,0.0135,0.0135,0.0136,0.0142,0.0143,0.0144,0.0123,0.0112,0.0081,0.0041,0.0001,-0.0048,-0.0141,-0.0129,-0.0192,-0.0241,-0.0243,-0.0291,-0.0326,-0.0326,-0.0312,-0.0284,-0.0283,-0.0283,-0.0283,0,0.0143,0.0153,0.0172,0.0171,0.0169,0.0177,0.0182,0.0172,0.0197,0.0178,0.0208,0.0122,0.0118,0.0013,-0.0092,-0.0113,-0.0186,-0.0229,-0.0319,-0.0322,-0.0326,-0.0329,-0.0293,-0.0293,-0.0293,-0.0293,-0.0293,0,0.0178,0.0192,0.0193,0.0203,0.0237,0.0222,0.0268,0.0258,0.0285,0.0342,0.0265,0.03,0.0136,0.0074,-0.0053,-0.0182,-0.016,-0.0308,-0.0332,-0.0306,-0.0307,-0.0309,-0.0311,-0.0294,-0.0294,-0.0294,-0.0293,0,0.0211,0.0209,0.0235,0.0246,0.0255,0.0283,0.0343,0.0387,0.0402,0.0484,0.0495,0.0445,0.0357,0.019,0.0033,-0.0107,-0.0242,-0.0293,-0.0247,-0.0267,-0.0373,-0.0372,-0.0406,-0.0407,-0.0408,-0.0409,-0.041,0,0.0226,0.0243,0.0273,0.0309,0.0317,0.0368,0.0417,0.0441,0.0509,0.0587,0.0641,0.0585,0.0546,0.0293,0.0038,-0.02,-0.0227,-0.0331,-0.0385,-0.0365,-0.0386,-0.0382,-0.0379,-0.0362,-0.0362,-0.0362,-0.0362,0,0.0263,0.0273,0.0298,0.0382,0.0435,0.0504,0.0581,0.0652,0.0714,0.0775,0.0853,0.0828,0.0597,0.035,0.0017,-0.0147,-0.0303,-0.0347,-0.0325,-0.0344,-0.0328,-0.0347,-0.0344,-0.0365,-0.0365,-0.0364,-0.0364,-0.0364,0.0294,0.0335,0.0391,0.0466,0.0537,0.0647,0.0724,0.0814,0.0919,0.1021,0.0987,0.0956,0.0675,0.0239,-0.0036,-0.0317,-0.0321,-0.0429,-0.0426,-0.0423,-0.042,-0.0408,-0.0458,-0.0458,-0.0459,-0.0459,-0.0459,0,0.0354,0.0415,0.0485,0.0586,0.0682,0.0715,0.0844,0.091,0.1036,0.1114,0.1137,0.0862,0.0587,0.0297,-0.0123,-0.0402,-0.0421,-0.0481,-0.0436,-0.0432,-0.0429,-0.0425,-0.0465,-0.0466,-0.0466,-0.0467,0,0,0.0398,0.0481,0.0523,0.0693,0.0787,0.0916,0.1001,0.1073,0.1135,0.1169,0.1162,0.1065,0.0704,0.0391,0.0022,-0.0199,-0.0251,-0.0253,-0.0221,-0.0121,-0.0114,-0.0376,-0.0363,0,0,0,0,0]}],[{"header":{"parameterUnit":"m.s-1","parameterCategory":2,"la1":30.2991,"la2":30.254,"lo1":-89.0895,"lo2":-89.0444,"dy":0.0017,"dx":0.0017,"nx":28,"ny":28,"refTime":"2024-05-09T03:00:00:Z","depth":"4","parameterNumber":2,"parameterNumberName":"U-component_of_CURRENTS"},"data":[0,0,0,0,0,0,0,0,0,0,0,0,0,0,0,0,0,0,0,0,0,0,0,0,0,0,0,0,0,0,0,0,0,0,0,0,0,0,0,0,0,0,0,0,0,0,0,0,0,0,0,0,0,0,0,0,0,0,0.083,0.083,0,0.089,0.0891,0.0892,0.0935,0.0935,0.0935,0.0935,0.1067,0.107,0.1074,0,0,0,0,0,0,0,0,0,0,0,0,0,0.0794,0.0794,0.083,0.083,0.083,0.089,0.0891,0.0892,0.0935,0.0935,0.0935,0.0935,0.1066,0.107,0.1074,0,0,0,0,0,0,0,0,0,0,0,0,0,0.0831,0.0794,0.083,0.0856,0.0858,0.0889,0.0891,0.0892,0.0935,0.0935,0.0935,0.0935,0.1064,0.1069,0.1075,0.111,0,0,0.1091,0.1093,0,0,0,0,0,0,0,0,0.0829,0.0833,0.0851,0.0854,0.0857,0.0901,0.0926,0.0967,0.0935,0.0911,0.0935,0.0934,0.1015,0.1024,0.1041,0.1116,0.1122,0.1092,0.1095,0.1097,0.1099,0,0,0,0,0,0,0,0.0826,0.0831,0.0858,0.0852,0.0855,0.0878,0.0883,0.0934,0.0968,0.0913,0.0915,0.0914,0.1018,0.1036,0.1045,0.1124,0.1091,0.1096,0.1099,0.1102,0.1282,0.1284,0,0,0,0,0,0,0.0808,0.0828,0.0856,0.086,0.0837,0.0878,0.0884,0.089,0.0965,0.0975,0.0914,0.0916,0.1027,0.1039,0.105,0.1155,0.1097,0.1102,0.1105,0.1281,0.1282,0.1284,0,0,0,0,0,0,0.0807,0.081,0.0854,0.0841,0.0848,0.0878,0.0885,0.0892,0.0937,0.0965,0.0977,0.0955,0.1027,0.1042,0.1127,0.1158,0.1105,0.1109,0.1279,0.1281,0.1283,0.1328,0,0,0,0,0,0,0.0806,0.081,0.0821,0.084,0.0848,0.0903,0.0885,0.0893,0.0933,0.0937,0.1004,0.1014,0.1028,0.1119,0.1132,0.1164,0.1114,0.1277,0.128,0.1283,0.1324,0.1331,0.1337,0,0,0,0,0,0.0804,0.0802,0.0821,0.0825,0.0858,0.0904,0.0913,0.0935,0.0935,0.0973,0.1014,0.1013,0.1146,0.1126,0.1141,0.1175,0.1275,0.1279,0.1282,0.1321,0.133,0.1337,0,0,0,0,0,0,0.0781,0.0806,0.0828,0.0832,0.0885,0.091,0.0936,0.0954,0.1016,0.1028,0.1049,0.1064,0.1142,0.1158,0.1135,0.1233,0.1205,0.1212,0.1229,0.1238,0.1244,0.1241,0.1118,0,0,0,0,0,0.0784,0.0801,0.0839,0.0853,0.0879,0.092,0.0943,0.0971,0.1014,0.1042,0.1085,0.1127,0.1164,0.1202,0.1242,0.1314,0.1325,0.134,0.1347,0.1352,0.1359,0.1404,0.1415,0.1296,0.1296,0.1296,0,0,0.0781,0.0795,0.0807,0.0852,0.0892,0.0943,0.0937,0.0991,0.1035,0.1048,0.1132,0.116,0.1188,0.1257,0.1292,0.128,0.1394,0.1357,0.1361,0.1365,0.1408,0.142,0.143,0.1298,0.1298,0.1297,0,0,0.0795,0.0804,0.0843,0.0885,0.0951,0.0974,0.0998,0.106,0.1095,0.1175,0.1182,0.1235,0.1309,0.1331,0.1346,0.1418,0.1424,0.1429,0.1471,0.1514,0.1524,0.1533,0.1569,0.1581,0.1437,0.1437,0.1437,0,0.0802,0.0839,0.0864,0.0917,0.0947,0.0992,0.105,0.1091,0.1175,0.1206,0.1211,0.1308,0.1337,0.1397,0.1418,0.1433,0.1458,0.1437,0.1522,0.1531,0.1539,0.1574,0.1587,0.144,0.1439,0.1439,0.1439,0,0.0857,0.0892,0.0916,0.0995,0.1036,0.109,0.1144,0.1202,0.1237,0.1274,0.1356,0.1396,0.1449,0.1462,0.1465,0.1538,0.1536,0.152,0.1499,0.1554,0.1587,0.1599,0.1443,0.1443,0.1442,0.1441,0,0,0.086,0.0942,0.0956,0.0998,0.1079,0.1116,0.1188,0.1261,0.1307,0.1381,0.1441,0.15,0.1522,0.1541,0.1556,0.1595,0.1675,0.1591,0.1592,0.1623,0.1778,0.1682,0.1686,0.1679,0.1681,0.1683,0.1779,0,0.091,0.0994,0.1027,0.1111,0.1157,0.1205,0.1261,0.133,0.1384,0.1457,0.1496,0.1563,0.155,0.1588,0.1626,0.1665,0.1709,0.1651,0.1724,0.1726,0.1631,0.1697,0.169,0.1788,0.1791,0.1793,0.1794,0,0.096,0.1004,0.1088,0.1156,0.1184,0.124,0.1323,0.1387,0.1479,0.1523,0.159,0.1625,0.1703,0.1679,0.1775,0.1743,0.177,0.1789,0.1793,0.1695,0.1653,0.1722,0.1816,0.1814,0.1813,0.1811,0.181,0,0.0939,0.1038,0.1095,0.1125,0.1219,0.1265,0.1322,0.1412,0.1463,0.1578,0.1625,0.1711,0.1771,0.1816,0.1859,0.1833,0.1954,0.1917,0.1856,0.1849,0.1885,0.1874,0.1986,0.1986,0.1986,0.1986,0.1985,0,0.0949,0.0998,0.1093,0.1125,0.1194,0.1268,0.135,0.1417,0.1514,0.1582,0.1664,0.1722,0.1812,0.1882,0.19,0.192,0.1992,0.1878,0.1873,0.1902,0.1892,0.1894,0.1882,0.1989,0.1988,0.1988,0.1987,0,0.0915,0.0979,0.1047,0.1151,0.1186,0.124,0.1351,0.1404,0.1508,0.16,0.1642,0.1762,0.1857,0.1924,0.2016,0.1969,0.1997,0.1986,0.2031,0.2024,0.1853,0.1842,0.1922,0.192,0.1918,0.1916,0.1915,0,0.0904,0.0937,0.1049,0.1086,0.1138,0.1224,0.1277,0.1389,0.1442,0.1607,0.164,0.1778,0.1849,0.1898,0.1975,0.2019,0.1993,0.1994,0.1901,0.1862,0.185,0.1842,0.1835,0.1911,0.1911,0.191,0.191,0,0.0872,0.092,0.0969,0.1046,0.111,0.117,0.1257,0.1283,0.142,0.1524,0.1607,0.1671,0.178,0.1845,0.1903,0.1921,0.1982,0.1971,0.1974,0.1887,0.185,0.1838,0.1833,0.1903,0.1904,0.1904,0.1905,0,0.0843,0.0861,0.0928,0.0986,0.1062,0.11,0.1155,0.1224,0.1289,0.1462,0.1494,0.1642,0.1765,0.1798,0.1846,0.1866,0.183,0.176,0.1774,0.1783,0.1692,0.1621,0.1615,0,0,0,0,0,0.0803,0.0809,0.0861,0.0919,0.0994,0.1036,0.1133,0.1189,0.1319,0.1342,0.1411,0.1505,0.1595,0.1668,0.1662,0.179,0.1837,0.1775,0.1762,0.1862,0.1871,0.1777,0,0,0,0,0,0,0.0771,0.0809,0.0829,0.0851,0.0879,0.0947,0.1006,0.1094,0.1109,0.125,0.1303,0.1415,0.1518,0.1582,0.1632,0.1656,0.1619,0.1867,0.1863,0.1858,0.1865,0.1872,0.1779,0,0,0,0,0]},{"header":{"parameterUnit":"m.s-1","parameterCategory":2,"la1":30.2991,"la2":30.254,"lo1":-89.0895,"lo2":-89.0444,"dy":0.0017,"dx":0.0017,"nx":28,"ny":28,"refTime":"2024-05-09T03:00:00:Z","depth":"4","parameterNumber":3,"parameterNumberName":"V-component_of_CURRENTS"},"data":[0,0,0,0,0,0,0,0,0,0,0,0,0,0,0,0,0,0,0,0,0,0,0,0,0,0,0,0,0,0,0,0,0,0,0,0,0,0,0,0,0,0,0,0,0,0,0,0,0,0,0,0,0,0,0,0,0,0,0.0143,0.0143,0,0.0083,0.0082,0.0081,0.0078,0.0079,0.008,0.0081,-0.0053,-0.0057,-0.0062,0,0,0,0,0,0,0,0,0,0,0,0,0,0.0113,0.0114,0.0143,0.0143,0.0143,0.0083,0.0082,0.0081,0.0078,0.0079,0.008,0.0082,-0.0052,-0.0057,-0.0062,0,0,0,0,0,0,0,0,0,0,0,0,0,0.0094,0.0115,0.0143,0.0137,0.0136,0.0084,0.0082,0.0081,0.0078,0.0079,0.0081,0.0082,-0.005,-0.0056,-0.0063,-0.0137,0,0,-0.0084,-0.0087,0,0,0,0,0,0,0,0,0.0095,0.0094,0.0138,0.0137,0.0136,0.0093,0.0023,0.0006,0.0077,0.0096,0.0081,0.0083,-0.001,-0.002,-0.0039,-0.0143,-0.0149,-0.0085,-0.0089,-0.0092,-0.0094,0,0,0,0,0,0,0,0.0097,0.0096,0.0116,0.0138,0.0136,0.0088,0.0088,0.0019,0.003,0.0094,0.0095,0.0094,-0.0011,-0.0032,-0.0042,-0.0151,-0.0084,-0.009,-0.0095,-0.0097,-0.0285,-0.0286,0,0,0,0,0,0,0.0118,0.0098,0.0118,0.0114,0.0123,0.0089,0.0088,0.0102,0.0033,0.0025,0.0092,0.0094,-0.0021,-0.0034,-0.0047,-0.0112,-0.0092,-0.0098,-0.0102,-0.0284,-0.0285,-0.0286,0,0,0,0,0,0,0.0118,0.0121,0.012,0.0107,0.0104,0.0089,0.0104,0.01,0.0079,0.0033,0.0024,0.0076,-0.0021,-0.0038,-0.0111,-0.0118,-0.0101,-0.0107,-0.0283,-0.0284,-0.0285,-0.026,0,0,0,0,0,0,0.0117,0.0121,0.0132,0.0109,0.0106,0.0081,0.0102,0.0098,0.0078,0.0079,0.0015,0.0005,-0.0021,-0.01,-0.0118,-0.0127,-0.0113,-0.0282,-0.0283,-0.0285,-0.026,-0.0261,-0.0261,0,0,0,0,0,0.0116,0.0128,0.0133,0.0135,0.0124,0.008,0.0072,0.0064,0.0075,0.0052,0.0018,0.0006,-0.0122,-0.0108,-0.0128,-0.0139,-0.0281,-0.0283,-0.0285,-0.026,-0.026,-0.0261,0,0,0,0,0,0,0.0127,0.0128,0.0133,0.0148,0.0113,0.0081,0.0063,0.0056,0.0009,0.001,-0.0024,-0.0039,-0.01,-0.0133,-0.0116,-0.0197,-0.0197,-0.0203,-0.0171,-0.0172,-0.0173,-0.0142,-0.0118,0,0,0,0,0,0.0134,0.014,0.0122,0.0128,0.0111,0.0083,0.0065,0.0054,0.0016,-0.0001,-0.0042,-0.0084,-0.0127,-0.0158,-0.0208,-0.0272,-0.0283,-0.0287,-0.0287,-0.0287,-0.0275,-0.0297,-0.0298,-0.0292,-0.0292,-0.0292,0,0,0.014,0.0142,0.0145,0.0129,0.0102,0.0074,0.0074,0.0039,0.0022,-0.0014,-0.0061,-0.01,-0.0146,-0.0201,-0.023,-0.0228,-0.0299,-0.029,-0.0289,-0.0277,-0.0299,-0.03,-0.03,-0.0294,-0.0294,-0.0293,0,0,0.0131,0.0151,0.0136,0.0111,0.0074,0.0058,0.0048,0.0004,-0.0009,-0.0066,-0.008,-0.0121,-0.0205,-0.0224,-0.0246,-0.0287,-0.0303,-0.0305,-0.0285,-0.0306,-0.0306,-0.0306,-0.0332,-0.0334,-0.0302,-0.0302,-0.0302,0,0.013,0.0132,0.0119,0.0092,0.0083,0.0054,0.003,0.0002,-0.0057,-0.0065,-0.0078,-0.0162,-0.0208,-0.0243,-0.0249,-0.0286,-0.0301,-0.0276,-0.0304,-0.0305,-0.0305,-0.0331,-0.0334,-0.0301,-0.0301,-0.0301,-0.0301,0,0.0099,0.0104,0.0088,0.0062,0.0042,0.0015,-0.0013,-0.0038,-0.0052,-0.0071,-0.0116,-0.0174,-0.021,-0.0235,-0.0258,-0.0281,-0.0293,-0.0302,-0.0295,-0.0304,-0.0332,-0.0335,-0.03,-0.03,-0.03,-0.0301,0,0,0.0088,0.0072,0.0067,0.0069,0.0032,0.0016,-0.0009,-0.0033,-0.0028,-0.0089,-0.0089,-0.0164,-0.0177,-0.0201,-0.0235,-0.0257,-0.0284,-0.0277,-0.0279,-0.0289,-0.0335,-0.0334,-0.0338,-0.0296,-0.0296,-0.0296,-0.0356,0,0.0063,0.0042,0.0035,0.002,0.0012,0.0002,-0.0009,-0.003,-0.0046,-0.006,-0.0102,-0.0129,-0.0169,-0.018,-0.0211,-0.0265,-0.0291,-0.0267,-0.0337,-0.0339,-0.0325,-0.034,-0.0297,-0.0359,-0.036,-0.036,-0.0361,0,0.0028,0.003,0.002,0.0038,0.0031,0.0021,0.0032,0.0016,-0.0003,-0.0015,-0.004,-0.0072,-0.0117,-0.0145,-0.0233,-0.0216,-0.0269,-0.0312,-0.0316,-0.032,-0.0343,-0.0349,-0.0367,-0.0367,-0.0366,-0.0366,-0.0365,0,0.0039,0.0025,0.0034,0.0032,0.0033,0.0039,0.0041,0.0033,0.0037,0.0022,0.0023,-0.0033,-0.0061,-0.0131,-0.0228,-0.0228,-0.0322,-0.0334,-0.0384,-0.0385,-0.0377,-0.0377,-0.0387,-0.0387,-0.0387,-0.0387,-0.0386,0,0.0031,0.0036,0.0045,0.005,0.0071,0.0065,0.0086,0.0084,0.0084,0.0097,0.0051,0.0044,-0.0058,-0.0126,-0.0211,-0.0311,-0.0312,-0.0378,-0.0398,-0.0369,-0.0367,-0.0381,-0.0379,-0.0389,-0.0388,-0.0388,-0.0387,0,0.0037,0.0038,0.0055,0.007,0.0077,0.0096,0.0119,0.0134,0.0133,0.015,0.0148,0.0094,0.0009,-0.0101,-0.022,-0.0287,-0.0381,-0.0416,-0.038,-0.0397,-0.0435,-0.0431,-0.0471,-0.0471,-0.0471,-0.0472,-0.0472,0,0.0039,0.0048,0.0077,0.0093,0.0101,0.0128,0.0147,0.0157,0.0177,0.018,0.0188,0.0119,0.007,-0.0089,-0.0214,-0.0374,-0.0397,-0.0445,-0.0436,-0.0427,-0.0442,-0.0438,-0.0435,-0.0473,-0.0473,-0.0473,-0.0473,0,0.0045,0.0055,0.0069,0.0105,0.013,0.0167,0.0197,0.0218,0.0236,0.0237,0.0238,0.0161,0.0063,-0.0071,-0.0201,-0.0316,-0.0411,-0.0449,-0.0449,-0.0441,-0.0429,-0.0443,-0.044,-0.0474,-0.0474,-0.0474,-0.0474,0,0.0044,0.0054,0.0068,0.0097,0.014,0.0183,0.0211,0.0239,0.026,0.0277,0.0275,0.018,0.0126,-0.0043,-0.0163,-0.0277,-0.0304,-0.0332,-0.0339,-0.0339,-0.0287,-0.0252,-0.0255,0,0,0,0,0,0.0029,0.002,0.0055,0.0087,0.0142,0.0164,0.0224,0.0252,0.028,0.0296,0.0293,0.0212,0.0056,-0.0018,-0.0129,-0.0199,-0.0351,-0.0336,-0.0393,-0.048,-0.0479,-0.044,0,0,0,0,0,0,0.0006,0.002,0.0032,0.0068,0.01,0.0155,0.02,0.0234,0.0251,0.0274,0.0196,0.0178,0.0019,0.0115,-0.0136,-0.0173,-0.0224,-0.0408,-0.041,-0.0481,-0.048,-0.0479,-0.0438,0,0,0,0,0]}]]